Location: Unspecified
(0.0000°N, 0.0000°E)
Time: 01:44:36
(UTC+00:00)

Tiros 1 despin weight - Pass Details

Date: 19 November 2019
Orbit: 594 x 642 km, 48.2° (Epoch: 10 December)

Event Time Altitude Azimuth Distance (km) Brightness Sun altitude
Rises 10:41:40 0° 239° (WSW) 2,847 ? 65.1°
Reaches altitude 10° 10:44:14 10° 251° (WSW) 1,935 ? 65.5°
Maximum altitude 10:48:00 27° 309° (NW) 1,149 ? 66.0°
Drops below altitude 10° 10:51:44 10° 8° (N) 1,914 ? 66.5°
Sets 10:54:16 0° 20° (NNE) 2,810 ? 66.9°
